This demonstration page uses our WeatherBlox Daily Observations layout. Learn more.

Left ArrowRight Arrow

34.74481, -87.66753

Hourly Observations for April 15, 2021

Temp ( °F °C ) Dew Point ( °F °C ) Humidity (%) Winds ( mph kmh ) Pressure ( in mb ) Visibility ( mi km ) Precip ( " mm )
12:26 am 00:26 Mostly Cloudy 58 14.4 48 8.9 70 70 ENE 5 7 30.02 1017 10 16 0.00 0.00
12:48 am 00:48 Mostly Cloudy 57 14 48 9 72 72 E 3 6 30.01 1016 10 16 0.00 0.00
12:53 am 00:53 Mostly Cloudy 58 14.4 49 9.4 72 72 E 3 6 30.00 1016 10 16 0.00 0.00
1:17 am 01:17 Partly Cloudy 58 14.4 48 8.9 70 70 Calm 30.00 1016 10 16 0.00 0.00
1:53 am 01:53 Clear 58 14.4 48 8.9 70 70 Calm 29.99 1016 10 16 0.00 0.00
2:53 am 02:53 Partly Cloudy 57 13.9 49 9.4 74 74 Calm 29.98 1015 10 16 0.00 0.00
3:53 am 03:53 Partly Cloudy 56 13.3 49 9.4 77 77 NNW 5 7 29.98 1015 10 16 0.00 0.00
4:53 am 04:53 Mostly Clear 56 13.3 46 7.8 70 70 N 5 7 29.98 1015 10 16 0.00 0.00
5:53 am 05:53 Mostly Cloudy 55 12.8 44 6.7 67 67 NNW 5 7 30.01 1016 10 16 0.00 0.00
6:53 am 06:53 Sunny 54 12.2 42 5.6 64 64 N 6 9 29.99 1016 10 16 0.00 0.00
7:53 am 07:53 Cloudy 56 13.3 43 6.1 62 62 N 6 9 30.02 1017 10 16 0.00 0.00
8:53 am 08:53 Mostly Sunny 58 14.4 43 6.1 58 58 NE 10 17 30.01 1016 10 16 0.00 0.00
9:53 am 09:53 Sunny 61 16.1 43 6.1 52 52 ENE 8 13 30.00 1016 10 16 0.00 0.00
10:53 am 10:53 Sunny 63 17.2 43 6.1 48 48 VRB 6 9 30.01 1016 10 16 0.00 0.00
11:53 am 11:53 Partly Cloudy 64 17.8 43 6.1 46 46 VRB 3 6 30.01 1016 10 16 0.00 0.00
12:53 pm 12:53 Partly Cloudy 67 19.4 44 6.7 44 44 NNW 5 7 30.01 1016 10 16 0.00 0.00
1:53 pm 13:53 Mostly Cloudy 66 18.9 40 4.4 39 39 Calm 29.98 1015 10 16 0.00 0.00
2:53 pm 14:53 Mostly Sunny 68 20 40 4.4 36 36 NNW 7 11 29.96 1015 10 16 0.00 0.00
3:53 pm 15:53 Sunny 67 19.4 40 4.4 37 37 VRB 3 6 29.94 1014 10 16 0.00 0.00
4:53 pm 16:53 Sunny 67 19.4 39 3.9 36 36 WNW 7 11 29.94 1014 10 16 0.00 0.00
5:53 pm 17:53 Sunny 67 19.4 39 3.9 36 36 NW 6 9 29.93 1014 10 16 0.00 0.00
6:53 pm 18:53 Sunny 63 17.2 36 2.2 37 37 N 5 7 29.95 1014 10 16 0.00 0.00
7:53 pm 19:53 Clear 60 15.6 35 1.7 39 39 NNW 6 9 29.96 1014 10 16 0.00 0.00
8:53 pm 20:53 Clear 60 15.6 34 1.1 38 38 VRB 5 7 29.95 1014 10 16 0.00 0.00
9:53 pm 21:53 Clear 58 14.4 34 1.1 41 41 N 5 7 29.96 1015 10 16 0.00 0.00
10:53 pm 22:53 Clear 57 13.9 35 1.7 44 44 N 3 6 29.96 1015 10 16 0.00 0.00
11:53 pm 23:53 Clear 56 13.3 36 2.2 47 47 NNE 5 7 29.98 1015 10 16 0.00 0.00

Powered by AerisWeather